Voltar ao catálogo

SL-16 DEB

AtivoLEO
NORAD 39724·DEBRIS·🇷🇺 Russia

Lançado Dec 25, 1992 de Baikonur Cosmodrome

Loading…

Próximas Passagens (próximas 24 horas)

TLE

AtualizadoSource: Space-Track

Época: Sep 13, 2026, 05:55 UTC

1 39724U 92093KQ  26256.24716654  .00000209  00000-0  15880-3 0  9990
2 39724  70.8482  84.8599 0087507 173.2244 187.0078 14.03284355634592

Acompanhe SL-16 DEB em tempo real com AllMySat

Download on the App Store